Tracking 27111 objects as of 29-Mar-2023
HD Live streaming from Space Station
objects crossing your sky now

ERS 2 DEB

Track ERS 2 DEB now!
10-day predictions


NORAD ID: 35393
Int'l Code: 1995-021G
Perigee: 749.5 km
Apogee: 754.0 km
Inclination: 98.4 °
Period: 99.7 minutes
Semi major axis: 7122 km
RCS: 0.0072 m2 (small)
Launch date: April 21, 1995
Source: European Space Agency (ESA)
Launch site: FRENCH GUIANA (FRGUI)

Note: This is SATELLITE DEBRIS
Your satellite tracking list
Your tracking list is empty




NASA's NSSDC Master Catalog

Two Line Element Set (TLE):
1 35393U 95021G   23087.35806785  .00004517  00000-0  13276-2 0  9990
2 35393  98.3827  47.6188 0003132 286.6938 226.1926 14.44220252 31634
Source of the keplerian elements: AFSPC